This is the latest recevied weather packets stored in our database for station/object KD0RIH. If no packets are shown the sender has not sent any weather packets the latest 1 day(s).
| Time | Temp. | Humidity | Pressure | Rain* | Wind** | Luminosity | Snow |
|---|---|---|---|---|---|---|---|
| 1777995724 | 10.56° C | 74% | 1012.5 hPa | 0 mm | 0 m/s | 104 W/m² | - |
| 1777995420 | 10.56° C | 75% | 1012.4 hPa | 0 mm | 0 m/s | 100 W/m² | - |
| 1777995118 | 10.56° C | 76% | 1012.7 hPa | 0 mm | 0 m/s | 95 W/m² | - |
| 1777994814 | 10.56° C | 75% | 1012.4 hPa | 0 mm | 0 m/s | 91 W/m² | - |
| 1777994510 | 10.56° C | 74% | 1012.4 hPa | 0 mm | 0 m/s | 101 W/m² | - |
| 1777994206 | 10.56° C | 72% | 1012.5 hPa | 0 mm | 0 m/s | 107 W/m² | - |
| 1777993903 | 10.56° C | 78% | 1012.3 hPa | 0 mm | 0 m/s | 97 W/m² | - |
| 1777993599 | 10° C | 76% | 1012.2 hPa | 0 mm | 0 m/s | 101 W/m² | - |
| 1777993297 | 10° C | 76% | 1012.1 hPa | 0 mm | 0 m/s | 86 W/m² | - |
| 1777992992 | 10° C | 78% | 1012.3 hPa | 0 mm | 0 m/s | 73 W/m² | - |
| 1777992691 | 10° C | 77% | 1012 hPa | 0 mm | 0.45 m/s, 290° | 75 W/m² | - |
| 1777992388 | 10° C | 78% | 1012 hPa | 0 mm | 0 m/s | 76 W/m² | - |
| 1777992085 | 10° C | 77% | 1011.9 hPa | 1.27 mm | 0 m/s | 83 W/m² | - |
| 1777991783 | 10° C | 80% | 1011.9 hPa | 1.27 mm | 0 m/s | 93 W/m² | - |
| 1777991480 | 10° C | 80% | 1011.4 hPa | 0 mm | 0 m/s | 83 W/m² | - |
| 1777991177 | 10° C | 79% | 1011.6 hPa | 1.78 mm | 0 m/s | 67 W/m² | - |
| 1777990874 | 10° C | 76% | 1011.8 hPa | 1.78 mm | 0 m/s | 63 W/m² | - |
| 1777990572 | 10° C | 74% | 1012.3 hPa | 0 mm | 0.45 m/s, 265° | 66 W/m² | - |
| 1777990268 | 10° C | 78% | 1012.4 hPa | 0 mm | 0 m/s | 58 W/m² | - |
| 1777989965 | 10° C | 77% | 1012.5 hPa | 0 mm | 0 m/s | 38 W/m² | - |
| 1777989662 | 10° C | 78% | 1012.4 hPa | 0 mm | 0 m/s | 36 W/m² | - |
| 1777989358 | 10° C | 78% | 1012.5 hPa | 0 mm | 0.45 m/s, 313° | 30 W/m² | - |
| 1777989055 | 10° C | 79% | 1011.9 hPa | 0 mm | 0 m/s | 30 W/m² | - |
| 1777988750 | 10° C | 77% | 1011.7 hPa | 0 mm | 0 m/s | 33 W/m² | - |
| 1777988448 | 10° C | 76% | 1011.4 hPa | 0 mm | 0 m/s | 35 W/m² | - |
* Rain latest hour (hover to see other rain measurements)
** Current wind speed in m/s (hover to see current wind gust speed)